Regional Weather Roundup
Issued by NWS Sioux Falls, SD

Home | Current Version | Previous Version | Text Only | Print | Product List | Glossary Off
Versions: 1 2 3 4 5 6 7 8 9 10 11 12 13 14 15 16 17 18 19 20 21 22 23 24 25 26 27 28 29 30 31 32 33 34 35 36 37 38 39 40 41 42 43 44 45 46 47 48 49 50

627
ASUS43 KFSD 260610
RWRFSD

WEATHER ROUNDUP FOR SE SOUTH DAKOTA/SW MINNESOTA/NW IOWA
NATIONAL WEATHER SERVICE SIOUX FALLS SD
100 AM CDT THU MAY 26 2016

NOTE: "FAIR" INDICATES FEW OR NO CLOUDS BELOW 12,000 FEET WITH NO
SIGNIFICANT WEATHER AND OR OBSTRUCTIONS TO VISIBILITY.


SDZ038>040-050-052>070-260700-
SOUTHEAST SOUTH DAKOTA

CITY           SKY/WX    TMP DP  RH WIND       PRES   REMARKS
CHAMBERLAIN    CLOUDY    57  55  92 W3        29.86R
6HR MIN TEMP:  56; 6HR MAX TEMP:  72;

HURON          CLEAR     58  52  80 W10       29.81S
6HR MIN TEMP:  57; 6HR MAX TEMP:  74; 6HR PCP:  0.29;

MADISON        FAIR      59  59 100 CALM      29.82S
MITCHELL       CLOUDY    61  58  90 W5        29.83S
6HR MIN TEMP:  60; 6HR MAX TEMP:  76; 6HR PCP: TRACE;

SIOUX FALLS    CLOUDY    61  55  81 SE5       29.81R
6HR MIN TEMP:  60; 6HR MAX TEMP:  79; 6HR PCP:  0.01;

WINNER         FAIR      58  51  78 CALM      29.87S
YANKTON        CLOUDY    57  54  88 NW6       29.82R
$$

MNZ071-072-080-081-089-090-097-098-260700-
SOUTHWEST MINNESOTA

CITY           SKY/WX    TMP DP  RH WIND       PRES   REMARKS
FAIRMONT       CLOUDY    68  55  64 SE10      29.80F
JACKSON        CLOUDY    61  54  77 W24G58    29.94R VSB 1
LUVERNE        DRIZZLE   61  52  72 CALM      29.80F
MARSHALL       CLOUDY    66  52  60 W6        29.78F
6HR MIN TEMP:  64; 6HR MAX TEMP:  78; 6HR PCP: TRACE;

MONTEVIDEO     CLOUDY    63  48  59 SW7       29.78S
PIPESTONE      CLOUDY    64  52  63 S5        29.81F
REDWOOD FALLS  CLOUDY    65  51  60 SW7       29.77F
TRACY          CLOUDY    65  55  68 SW7       29.78F
WINDOM         RAIN      64  54  68 SW29G38   29.82S
WORTHINGTON    RAIN      62  52  69 SW23      29.89F
$$

IAZ001>003-012>014-020>022-031-032-NEZ013-014-SDZ071-260700-
NORTHWEST IOWA

CITY           SKY/WX    TMP DP  RH WIND       PRES   REMARKS
CHEROKEE       CLOUDY    63  55  77 N14G20    29.87R THUNDER
DENISON          N/A     66  66 100 S7        29.82S
ESTHERVILLE    TSTM      58  53  84 W46G77    29.88R
LE MARS        LGT RAIN  61  59  94 E10       29.82F
ORANGE CITY    LGT RAIN  66  54  63 SW15      29.83F
SHELDON        CLOUDY    63  54  72 N16G26    29.80F
SIOUX CITY     TSTM      63  58  83 SE16      29.81F
6HR MIN TEMP:  63; 6HR MAX TEMP:  80; 6HR PCP:  0.24;

SPENCER        TSTM      59  54  83 NW23G35   29.86S
6HR MIN TEMP:  58; 6HR MAX TEMP:  80; 6HR PCP:  0.12;

STORM LAKE     PTCLDY    66  64  94 CALM      29.84F
$$

ABBREVIATIONS USED IN REMARKS
   TC - TEMPERATURE IN CELSIUS
  WCI - WIND CHILL INDEX
   HX - HEAT INDEX
  VSB - VISIBILITY





USA.gov is the U.S. government's official web portal to all federal, state and local government web resources and services.